Other Surface Observations
Issued by NWS Tucson, AZ

Current Version | Previous Version | Text Only | Print | Product List | Glossary On
Versions: 1 2 3 4 5 6 7 8 9 10 11 12 13 14 15 16 17 18 19 20 21 22 23 24 25 26 27 28 29 30 31 32 33 34 35 36 37 38 39 40 41 42 43 44 45 46 47 48 49 50
000
SXUS55 KTWC 230116
OSOTWC

WEATHER ROUNDUP FOR SOUTHEAST ARIZONA
NATIONAL WEATHER SERVICE TUCSON AZ
615 PM MST MON SEP 22 2014

AZZ504>506-514-230215-
LOCATION       SKY/WX    TMP DP  RH WIND       PRES   REMARKS
TUCSON         PTCLDY    92  55  28 NW13      29.97S
DAVIS-MONTHAN  PTCLDY    91  57  31 NW13      29.97R
CHILDRENS PARK N/A       93  59  32 NW6               PIMA CO DEQ
ALVERNON/22ND  N/A      N/A N/A N/A N/A               PIMA CO DEQ
CHERRY/GLENN   N/A      N/A N/A N/A N/A               PIMA CO DEQ
TANGERINE      N/A       93 N/A N/A W8                PIMA CO DEQ
CONTL RANCH    N/A       95  56  27 NW10              PIMA CO DEQ
GRANT/1ST      N/A       94  59  31 NW6               PIMA CO DEQ
CRAYCROFT/22ND N/A      N/A N/A N/A N/A               PIMA CO DEQ
GOLFLINKS/KOLB N/A       93  58  31 NW6               PIMA CO DEQ
AJO/12TH       N/A       93  58  31 NW6               PIMA CO DEQ
SAGUARO EAST   N/A      N/A N/A N/A N/A               PIMA CO DEQ
FAIRGROUNDS    N/A       92 N/A N/A NW7               PIMA CO DEQ
SAGUARO        N/A       93  59  32 W8G13             *SABINO CYN
SAN CARLOS     N/A       93  62  36 SE3               *SAN CARLOS
GREEN VALLEY   N/A       92  59  33 N5                PIMA CO DEQ
HORSE CAMP CYN N/A       84  60  45 SE8G13            *ARAVAIPA CYN
RINCON MTNS    N/A       66  56  70 CALM              *NR MANNING CAMP
$$

AZZ509>511-230215-
LOCATION       SKY/WX    TMP DP  RH WIND       PRES   REMARKS
SAFFORD        PTCLDY    85  64  49 SW5       30.00S
STRAY HORSE    N/A       68  55  63 SW5               *
TRAIL CABIN    N/A       72  57  60 W2                *N OF GRANVILLE
BLACK HILLS    N/A       85  62  47 SE5G10            *N OF FT THOMAS
DRY LAKE       N/A       66  57  72 SW3               *NATANES MTNS
NOON CREEK     N/A       75  61  61 SW4G19            *PINALENO MTNS
COLUMBINE      N/A       62  51  68 W3                *PINALENO MTNS
GUTHRIE        N/A       73  60  63 NE3               *SW OF GUTHRIE
$$

AZZ502-503-513-230215-
LOCATION       SKY/WX    TMP DP  RH WIND       PRES   REMARKS
NOGALES        CLOUDY    80  66  62 S9        30.07R
SELLS          N/A       94  54  26 W7G14             *
SASABE         N/A       89  59  36 NW8G14            *ALTAR VLY
HOPKINS        N/A       68  61  79 NW5G11            *SANTA RITA MTNS
CARR CYN       N/A       69  62  78 SW3               *W OF HEREFORD
$$

AZZ507-508-512-230215-
LOCATION       SKY/WX    TMP DP  RH WIND       PRES   REMARKS
SIERRA VISTA   MOCLDY    79  63  57 W5        30.13R
DOUGLAS        MOCLDY    80  63  55 E8        30.09R THUNDER
EMPIRE MTNS    N/A       76  66  71 CALM              *LAS CIENEGAS NCA
MULESHOE RANCH N/A       84  60  45 NW3               *PRESERVE
HEADQUARTERS   N/A       74  64  71 E4G10             *CHIRICAHUA MTNS
$$

.............................NOTES.............................
THIS IS AN AUTOMATED COLLECTIVE WITH MINIMAL QUALITY CONTROL.
PIMA CO DEQ SITES HAVE NONSTANDARD WIND SENSOR HEIGHTS.
PIMA CO DEQ SITES DO NOT REPORT WIND GUSTS.
* INDICATES WIND SENSORS LOCATED AT 20 FEET INSTEAD OF 33 FEET.
..............................KEY..............................
SKY/WX - SKY CONDITION/WEATHER
TMP    - TEMPERATURE IN FAHRENHEIT
DP     - DEWPOINT IN FAHRENHEIT
RH     - RELATIVE HUMIDITY IN PERCENT
WIND   - DIRECTION AND SPEED IN MILES PER HOUR (MPH)
VRB    - VARIABLE WIND DIRECTION
PRES   - MEAN SEA LEVEL PRESSURE IN INCHES OF MERCURY
         F - FALLING PRESSURE   R - RISING PRESSURE
         S - STEADY PRESSURE
VSB    - VISIBILITY IN MILES
HX     - HEAT INDEX IN FAHRENHEIT
WCI    - WIND CHILL INDEX IN FAHRENHEIT
N/A    - NOT AVAILABLE
AFB    - AIR FORCE BASE
         DAVIS-MONTHAN IS DAVIS-MONTHAN AIR FORCE BASE
CYN    - CANYON
MTNS   - MOUNTAINS
NCA    - NATIONAL CONSERVATION AREA
NR     - NEAR
VLY    - VALLEY
CONTL  - CONTINENTAL
PIMA CO DEQ - PIMA COUNTY DEPT OF ENVIRONMENTAL QUALITY



USA.gov is the U.S. government's official web portal to all federal, state and local government web resources and services.